Beaufort, NC

12:02 AM EDT on July 22, 2017 (GMT -0400)
Smith

Weather History for KMRH - March, 2014

Change the Weather History Date:

Friday, March 28, 2014

  Actual Average Record
Temperature  
Mean Temperature 62 °F -  
Max Temperature 70 °F 65 °F 77 °F (1989)
Min Temperature 54 °F 44 °F 29 °F (1969)
Degree Days  
Heating Degree Days 3    
Growing Degree Days 12 (Base 50)    
Moisture  
Dew Point 54 °F    
Average Humidity 74    
Maximum Humidity 83    
Minimum Humidity 63    
Precipitation  
Precipitation 0.00 in - - ()
Sea Level Pressure  
Sea Level Pressure 30.25 in    
Wind  
Wind Speed 10 mph (South)    
Max Wind Speed 18 mph    
Max Gust Speed 24 mph    
Visibility 10 miles    
Events      
Averages and records for this station are not official NWS values.
T = Trace of Precipitation, MM = Missing Value Source: NWS Daily Summary

Daily Weather History Graph

Daily Weather History Graph

Search for Another Location

Airport or City:

Trip Planner

Search our weather history database for the weather conditions in past years. The results will help you decide how hot, cold, wet, or windy it might be!

Date:

Astronomy

Mar. 28, 2014 Rise Set
Actual Time 6:59 AM EDT 7:24 PM EDT
Civil Twilight 6:33 AM EDT 7:49 PM EDT
Nautical Twilight 6:04 AM EDT 8:19 PM EDT
Astronomical Twilight 5:34 AM EDT 8:49 PM EDT
Moon 5:23 AM EDT (3/28) 5:23 PM EDT (3/28)
Length of Visible Light 13h 16m
Length of Day
12h 25m
Waning Crescent, 6% of the Moon is Illuminated
Mar 28
Waning Crescent
Mar 30
New
Apr 7
First Quarter
Apr 15
Full
Apr 22
Last Quarter

Hourly Weather History & Observations

Time (EDT) Temp. Dew Point Humidity Pressure Visibility Wind Dir Wind Speed Gust Speed Precip Events Conditions
12:58 AM 55.0 °F 48.0 °F 77% 30.34 in 10.0 mi South 11.5 mph - N/A   Clear
1:58 AM 55.9 °F 48.0 °F 75% 30.32 in 10.0 mi South 8.1 mph - N/A   Mostly Cloudy
2:58 AM 55.0 °F 48.9 °F 80% 30.30 in 10.0 mi South 6.9 mph - N/A   Partly Cloudy
3:58 AM 54.0 °F 48.9 °F 83% 30.29 in 10.0 mi South 6.9 mph - N/A   Clear
4:58 AM 57.0 °F 50.0 °F 77% 30.30 in 10.0 mi South 6.9 mph - N/A   Mostly Cloudy
5:58 AM 55.0 °F 50.0 °F 83% 30.29 in 10.0 mi South 4.6 mph - N/A   Clear
6:58 AM 55.9 °F 50.0 °F 80% 30.29 in 10.0 mi South 5.8 mph - N/A   Scattered Clouds
7:58 AM 59.0 °F 52.0 °F 78% 30.28 in 10.0 mi SSE 8.1 mph - N/A   Clear
8:58 AM 62.1 °F 53.1 °F 72% 30.28 in 10.0 mi South 8.1 mph - N/A   Clear
9:58 AM 64.0 °F 53.1 °F 67% 30.29 in 10.0 mi South 10.4 mph - N/A   Clear
10:58 AM 66.9 °F 55.9 °F 68% 30.29 in 10.0 mi South 15.0 mph - 0.00 in   Clear
11:58 AM 66.0 °F 55.9 °F 70% 30.28 in 10.0 mi South 13.8 mph - N/A   Clear
12:58 PM 68.0 °F 57.0 °F 68% 30.25 in 10.0 mi South 18.4 mph - N/A   Clear
1:58 PM 70.0 °F 57.0 °F 63% 30.23 in 10.0 mi South 15.0 mph 24.2 mph N/A   Partly Cloudy
2:58 PM 69.1 °F 57.0 °F 65% 30.22 in 9.0 mi South 16.1 mph - N/A   Partly Cloudy
3:58 PM 68.0 °F 55.9 °F 65% 30.19 in 9.0 mi South 15.0 mph - N/A   Overcast
4:58 PM 66.9 °F 55.9 °F 68% 30.19 in 9.0 mi South 12.7 mph 19.6 mph N/A   Overcast
5:58 PM 66.0 °F 55.9 °F 70% 30.19 in 9.0 mi South 13.8 mph - N/A   Overcast
6:58 PM 64.9 °F 55.9 °F 73% 30.19 in 10.0 mi South 11.5 mph - N/A   Overcast
7:58 PM 64.0 °F 57.0 °F 78% 30.19 in 10.0 mi South 11.5 mph - N/A   Overcast
8:58 PM 64.0 °F 57.0 °F 78% 30.20 in 10.0 mi South 10.4 mph - N/A   Overcast
9:58 PM 64.9 °F 57.9 °F 78% 30.19 in 10.0 mi SSE 11.5 mph - N/A   Overcast
10:58 PM 64.0 °F 57.9 °F 80% 30.18 in 10.0 mi South 10.4 mph - N/A   Overcast
11:58 PM 64.0 °F 57.9 °F 80% 30.17 in 10.0 mi SSE 12.7 mph - N/A   Overcast